Weather History for KAQP - May, 2011

Change the Weather History Date:

Thursday, May 12, 2011

  Actual Average Record
Temperature  
Mean Temperature 50 °F -  
Max Temperature 55 °F 65 °F 75 °F (2004)
Min Temperature 44 °F 42 °F 24 °F (2013)
Degree Days  
Heating Degree Days 16    
Moisture  
Dew Point 45 °F    
Average Humidity 84    
Maximum Humidity 93    
Minimum Humidity 71    
Precipitation  
Precipitation 0.09 in - - ()
Sea Level Pressure  
Sea Level Pressure 29.92 in    
Wind  
Wind Speed 17 mph (NNW)    
Max Wind Speed 26 mph    
Max Gust Speed 32 mph    
Visibility 10 miles    
Events Rain    
Averages and records for this station are not official NWS values.
T = Trace of Precipitation, MM = Missing Value Source: NWS Daily Summary

Daily Weather History Graph

Daily Weather History Graph

Search for Another Location

Airport or City:

Trip Planner

Search our weather history database for the weather conditions in past years. The results will help you decide how hot, cold, wet, or windy it might be!

Date:

Astronomy

May. 12, 2011 Rise Set
Actual Time 5:58 AM CDT 8:43 PM CDT
Civil Twilight 5:24 AM CDT 9:17 PM CDT
Nautical Twilight 4:41 AM CDT 10:00 PM CDT
Astronomical Twilight 3:51 AM CDT 10:51 PM CDT
Moon 3:12 PM CDT (5/12) 2:56 AM CDT (5/12)
Length of Visible Light 15h 53m
Length of Day
14h 45m
Waxing Gibbous, 71% of the Moon is Illuminated
May 12
Waxing Gibbous
May 17
Full
May 24
Last Quarter
Jun 1
New
Jun 8
First Quarter

Hourly Weather History & Observations

Time (CDT) Temp. Windchill Dew Point Humidity Pressure Visibility Wind Dir Wind Speed Gust Speed Precip Events Conditions
12:14 AM 55.4 °F - 50.0 °F 82% 29.85 in 10.0 mi North 19.6 mph - N/A   Scattered Clouds
12:35 AM 55.4 °F - 48.2 °F 77% 29.84 in 10.0 mi North 18.4 mph 24.2 mph N/A   Clear
12:54 AM 55.4 °F - 48.2 °F 77% 29.84 in 10.0 mi North 17.3 mph - N/A   Clear
1:14 AM 53.6 °F - 48.2 °F 82% 29.85 in 10.0 mi North 18.4 mph 23.0 mph N/A   Clear
1:35 AM 53.6 °F - 48.2 °F 82% 29.86 in 10.0 mi North 15.0 mph - N/A   Clear
1:54 AM 53.6 °F - 48.2 °F 82% 29.86 in 10.0 mi North 13.8 mph - N/A   Clear
2:14 AM 51.8 °F - 48.2 °F 88% 29.86 in 10.0 mi North 13.8 mph - N/A   Scattered Clouds
2:35 AM 51.8 °F - 46.4 °F 82% 29.86 in 10.0 mi North 11.5 mph 17.3 mph N/A   Clear
2:55 AM 51.8 °F - 46.4 °F 82% 29.87 in 10.0 mi North 11.5 mph - N/A   Clear
3:14 AM 51.8 °F - 46.4 °F 82% 29.87 in 10.0 mi NNW 11.5 mph - N/A   Clear
3:34 AM 51.8 °F - 46.4 °F 82% 29.87 in 10.0 mi NNW 10.4 mph - N/A   Clear
3:55 AM 51.8 °F - 46.4 °F 82% 29.87 in 10.0 mi NNW 13.8 mph - N/A   Clear
4:15 AM 51.8 °F - 46.4 °F 82% 29.88 in 10.0 mi NNW 11.5 mph - N/A   Clear
4:35 AM 50.0 °F - 46.4 °F 87% 29.88 in 10.0 mi NNW 10.4 mph - N/A   Clear
5:15 AM 48.2 °F - 44.6 °F 87% 29.88 in 10.0 mi North 12.7 mph - N/A   Scattered Clouds
5:35 AM 48.2 °F - 44.6 °F 87% 29.88 in 10.0 mi North 17.3 mph 20.7 mph N/A   Mostly Cloudy
6:15 AM 48.2 °F - 44.6 °F 87% 29.88 in 10.0 mi North 13.8 mph - N/A   Clear
6:35 AM 48.2 °F - 44.6 °F 87% 29.88 in 10.0 mi North 17.3 mph 20.7 mph N/A   Clear
6:55 AM 48.2 °F - 44.6 °F 87% 29.89 in 10.0 mi North 17.3 mph - N/A   Clear
7:15 AM 48.2 °F - 44.6 °F 87% 29.89 in 10.0 mi North 15.0 mph - N/A   Mostly Cloudy
7:35 AM 50.0 °F - 44.6 °F 82% 29.89 in 10.0 mi North 20.7 mph 25.3 mph N/A   Mostly Cloudy
7:55 AM 50.0 °F - 44.6 °F 82% 29.90 in 10.0 mi North 18.4 mph 24.2 mph N/A   Mostly Cloudy
8:15 AM 50.0 °F - 44.6 °F 82% 29.89 in 10.0 mi North 21.9 mph - N/A   Overcast
8:35 AM 50.0 °F - 44.6 °F 82% 29.90 in 10.0 mi North 19.6 mph 24.2 mph N/A   Overcast
8:54 AM 50.0 °F - 42.8 °F 76% 29.90 in 10.0 mi North 19.6 mph 26.5 mph N/A   Mostly Cloudy
9:15 AM 50.0 °F - 42.8 °F 76% 29.90 in 10.0 mi North 17.3 mph 26.5 mph N/A   Mostly Cloudy
9:54 AM 51.8 °F - 42.8 °F 71% 29.91 in 10.0 mi North 19.6 mph - N/A   Scattered Clouds
10:15 AM 51.8 °F - 42.8 °F 71% 29.92 in 10.0 mi North 17.3 mph 23.0 mph N/A   Mostly Cloudy
10:54 AM 48.2 °F - 44.6 °F 87% 29.92 in 10.0 mi North 15.0 mph - N/A Rain Light Rain
11:14 AM 48.2 °F - 44.6 °F 87% 29.92 in 10.0 mi North 17.3 mph 23.0 mph N/A Rain Light Rain
11:35 AM 48.2 °F - 44.6 °F 87% 29.92 in 10.0 mi NNW 16.1 mph - N/A Rain Light Rain
11:57 AM 48.2 °F - 44.6 °F 87% 29.92 in 10.0 mi NNW 15.0 mph - N/A Rain Light Rain
12:35 PM 48.2 °F - 44.6 °F 87% 29.92 in 10.0 mi NNW 16.1 mph - N/A Rain Light Rain
12:54 PM 48.2 °F - 44.6 °F 87% 29.92 in 10.0 mi NNW 15.0 mph 20.7 mph N/A Rain Light Rain
1:15 PM 46.4 °F 39.8 °F 44.6 °F 93% 29.93 in 10.0 mi NNW 16.1 mph 20.7 mph N/A Rain Light Rain
1:34 PM 46.4 °F 39.5 °F 44.6 °F 93% 29.93 in 10.0 mi NNW 17.3 mph - 0.01 in Rain Light Rain
1:55 PM 48.2 °F - 44.6 °F 87% 29.94 in 10.0 mi NNW 17.3 mph 21.9 mph 0.01 in Rain Light Rain
2:15 PM 46.4 °F 39.8 °F 44.6 °F 93% 29.94 in 10.0 mi NNW 16.1 mph - 0.01 in Rain Rain
2:35 PM 46.4 °F 39.8 °F 44.6 °F 93% 29.94 in 10.0 mi NNW 16.1 mph - 0.04 in Rain Rain
2:55 PM 46.4 °F 39.5 °F 44.6 °F 93% 29.94 in 10.0 mi NNW 17.3 mph 24.2 mph 0.05 in Rain Light Rain
3:35 PM 48.2 °F - 44.6 °F 87% 29.93 in 10.0 mi North 21.9 mph 25.3 mph 0.02 in Rain Light Rain
3:55 PM 48.2 °F - 44.6 °F 87% 29.94 in 10.0 mi NNW 20.7 mph - 0.03 in Rain Light Rain
4:15 PM 48.2 °F - 44.6 °F 87% 29.94 in 10.0 mi NNW 18.4 mph 23.0 mph N/A Rain Rain
4:35 PM 48.2 °F - 44.6 °F 87% 29.94 in 10.0 mi NNW 16.1 mph 21.9 mph N/A Rain Light Rain
4:54 PM 48.2 °F - 44.6 °F 87% 29.95 in 10.0 mi North 17.3 mph 23.0 mph N/A Rain Rain
5:15 PM 48.2 °F - 44.6 °F 87% 29.95 in 10.0 mi NNW 16.1 mph 25.3 mph N/A   Light Drizzle
5:35 PM 48.2 °F - 44.6 °F 87% 29.95 in 10.0 mi NNW 19.6 mph 26.5 mph N/A Rain Light Rain
5:55 PM 48.2 °F - 44.6 °F 87% 29.96 in 10.0 mi NNW 18.4 mph 24.2 mph N/A   Mostly Cloudy
6:16 PM 48.2 °F - 42.8 °F 82% 29.96 in 10.0 mi NNW 18.4 mph 26.5 mph N/A   Mostly Cloudy
6:54 PM 46.4 °F 39.2 °F 42.8 °F 87% 29.96 in 10.0 mi NNW 18.4 mph - N/A Rain Rain
7:15 PM 46.4 °F 38.5 °F 42.8 °F 87% 29.97 in 10.0 mi NNW 21.9 mph 26.5 mph N/A   Overcast
7:55 PM 46.4 °F 38.5 °F 41.0 °F 81% 29.97 in 10.0 mi NNW 21.9 mph 28.8 mph N/A   Overcast
8:14 PM 46.4 °F 37.7 °F 41.0 °F 81% 29.98 in 10.0 mi North 26.5 mph 31.1 mph N/A   Overcast
8:35 PM 46.4 °F 37.7 °F 41.0 °F 81% 29.98 in 10.0 mi North 26.5 mph 32.2 mph N/A   Overcast
8:55 PM 46.4 °F 38.5 °F 41.0 °F 81% 29.99 in 10.0 mi NNW 21.9 mph 27.6 mph N/A   Overcast
9:15 PM 44.6 °F 36.6 °F 41.0 °F 87% 30.00 in 10.0 mi NNW 19.6 mph 31.1 mph N/A   Overcast
9:35 PM 44.6 °F 36.4 °F 39.2 °F 81% 30.01 in 10.0 mi North 20.7 mph 27.6 mph N/A   Overcast
9:55 PM 44.6 °F 36.6 °F 39.2 °F 81% 30.01 in 10.0 mi North 19.6 mph - N/A   Overcast
10:15 PM 44.6 °F 36.4 °F 39.2 °F 81% 30.02 in 10.0 mi North 20.7 mph 28.8 mph N/A   Overcast
10:34 PM 44.6 °F 36.9 °F 39.2 °F 81% 30.03 in 10.0 mi North 18.4 mph 27.6 mph N/A   Overcast
10:55 PM 44.6 °F 36.4 °F 39.2 °F 81% 30.04 in 10.0 mi NNW 20.7 mph - N/A   Overcast
11:15 PM 42.8 °F 34.0 °F 39.2 °F 87% 30.04 in 10.0 mi NNW 20.7 mph 25.3 mph N/A   Light Drizzle
11:55 PM 42.8 °F 34.3 °F 39.2 °F 87% 30.04 in 10.0 mi NNW 19.6 mph 26.5 mph N/A   Overcast